Home   Weather   Bytom   Past weeks

Flag for Poland Past Weather in Bytom, Poland — Yesterday and Last 2 Weeks

Now
43 °F

More clouds than sun.


Feels Like: 37 °F
Forecast: 23 / 40 °F
Wind: 9 mph from Southwest

Location: Katowice Airport

Current Time: Dec 11, 2016 at 9:06:11 am

Latest Report: Dec 11, 2016 at 8:30 am


Visibility: 4 mi

Pressure: 29.83 "Hg

Humidity: 93%

Dew Point: 41 °F

Location of BytomLocation

Past Weather in Bytom — Graph

°F

Bytom Temperature Yesterday

Maximum temperature yesterday: 46 °F (at 11:30 am)
Minimum temperature yesterday: 39 °F (at 3:30 am)
Average temperature yesterday: 44 °F

High & Low Weather Summary for the Past Weeks

 TemperatureHumidityPressure
High46 °F (Dec 10, 11:30 am)100% (Nov 26, 8:00 am)30.63 "Hg (Nov 26, 8:00 am)
Low18 °F (Dec 5, 1:30 am)41% (Dec 5, 2:00 pm)29.45 "Hg (Dec 2, 3:30 am)
Average33 °F86%30.16 "Hg
* Reported Nov 26 8:00 am — Dec 11 8:00 am, Bytom, Weather by CustomWeather, © 2016

Note: Actual official high and low records may vary slightly from our data, if they occured in-between our weather recording intervals... More about our weather records

Advertising

Bytom Weather History for the Previous 24 Hours

Scroll right to see more
 ConditionsComfort  
Time TempWeatherWind HumidityBarometerVisibility
8:00 am
Sun, Dec 11
43 °FDrizzle. Fog.10 mph93%29.86 "Hg1 mi
7:30 am43 °FDrizzle. Fog.10 mph100%29.89 "Hg1 mi
7:00 am43 °FDrizzle. Fog.9 mph100%29.89 "Hg1 mi
6:30 am43 °FDrizzle. Fog.13 mph100%29.92 "Hg2 mi
6:00 am43 °FDrizzle. Fog.13 mph100%29.92 "Hg1 mi
5:30 am43 °FDrizzle. Fog.9 mph100%29.92 "Hg1 mi
5:00 am43 °FDrizzle. Fog.8 mph100%29.95 "Hg2 mi
4:30 am45 °FLight rain. Fog.9 mph93%29.95 "Hg2 mi
4:00 am45 °FLow clouds.9 mph93%29.98 "Hg5 mi
3:30 am45 °FLight rain. Passing clouds.8 mph93%29.98 "Hg5 mi
3:00 am45 °FLight rain. Passing clouds.8 mph93%30.01 "HgN/A
2:30 am46 °FLight rain. Low clouds.13 mph87%30.01 "HgN/A
2:00 am46 °FLow clouds.12 mph87%30.01 "HgN/A
1:30 am46 °FOvercast.12 mph87%30.01 "HgN/A
1:00 am46 °FOvercast.13 mph87%30.01 "HgN/A
12:30 am46 °FOvercast.13 mph82%30.04 "HgN/A
12:00 am46 °FOvercast.13 mph82%30.04 "HgN/A
11:30 pm
Sat, Dec 10
46 °FOvercast.10 mph82%30.04 "HgN/A
11:00 pm46 °FOvercast.12 mph82%30.04 "HgN/A
10:30 pm46 °FOvercast.12 mph82%30.04 "HgN/A
10:00 pm46 °FOvercast.13 mph82%30.04 "HgN/A
9:30 pm45 °FOvercast.6 mph87%30.04 "HgN/A
9:00 pm45 °FMostly cloudy.9 mph87%30.04 "HgN/A
8:30 pm45 °FOvercast.10 mph87%30.04 "HgN/A
8:00 pm46 °FOvercast.13 mph82%30.04 "HgN/A
7:30 pm46 °FMostly cloudy.15 mph82%30.04 "HgN/A
7:00 pm45 °FOvercast.13 mph87%30.04 "Hg5 mi
6:30 pm45 °FPartly cloudy.13 mph87%30.04 "Hg6 mi
6:00 pm45 °FPassing clouds.13 mph87%30.04 "Hg4 mi
5:30 pm45 °FClear.15 mph87%30.04 "Hg4 mi
5:00 pm45 °FPassing clouds.15 mph87%30.04 "Hg4 mi
4:30 pm45 °FClear.14 mph87%30.04 "Hg4 mi
4:00 pm45 °FClear.14 mph87%30.07 "Hg4 mi
3:30 pm46 °FClear.16 mph82%30.07 "Hg4 mi
3:00 pm46 °FPassing clouds.16 mph82%30.07 "Hg5 mi
2:30 pm46 °FPassing clouds.16 mph82%30.07 "Hg6 mi
2:00 pm46 °FSunny.13 mph82%30.07 "Hg10 mi
1:30 pm46 °FSunny.14 mph82%30.07 "Hg10 mi
1:00 pm46 °FPassing clouds.17 mph82%30.07 "HgN/A
12:30 pm46 °FSunny.17 mph82%30.09 "Hg10 mi
12:00 pm46 °FMostly cloudy.15 mph82%30.09 "HgN/A
11:30 am46 °FMostly cloudy.16 mph82%30.09 "HgN/A
11:00 am45 °FOvercast.16 mph87%30.09 "Hg6 mi
10:30 am45 °FPartly sunny.15 mph87%30.09 "Hg4 mi
10:00 am43 °FPartly sunny.15 mph87%30.09 "Hg4 mi
9:30 am43 °FPartly sunny.17 mph87%30.09 "Hg4 mi
9:00 am43 °FPartly sunny.17 mph87%30.09 "Hg4 mi
Weather by CustomWeather, © 2016

See weather overviewHow to use our weather pages